Regional Weather Roundup
Issued by NWS

Home | Current Version | Previous Version | Text Only | Print | Product List | Glossary On
Versions: 1 2 3 4 5 6 7 8 9 10 11 12 13 14 15 16 17 18 19 20 21 22 23 24 25 26 27 28 29 30 31 32 33 34 35 36 37 38 39 40 41 42 43 44 45 46 47 48 49 50
000
ASCA42 TJSJ 011810
RWRPR
PUERTO RICO/U.S. VIRGIN ISLANDS HOURLY WEATHER ROUNDUP
NATIONAL WEATHER SERVICE SAN JUAN PR
200 PM AST SAT AUG 01 2015

PRZ001-004-011900-
PUERTO RICO

CITY           SKY/WX    TMP DP  RH WIND       PRES   REMARKS
SAN JUAN LMM   MOSUNNY   90  75  62 NE15G28   30.01F HX 100
PONCE          MOSUNNY   90  72  55 SE17G23   29.97  HX  96
AGUADILLA      SUNNY     86  73  66 E21       30.02F HX  93
$$

PRZ006-007-011900-
U.S. VIRGIN ISLANDS

CITY           SKY/WX    TMP DP  RH WIND       PRES   REMARKS
CHARLOTTE AMA  MOSUNNY   93  72  49 E13G21    30.00F HX 100
CHRISTIANSTED  MOSUNNY   86  72  62 E16       30.00F HX  92
$$

HOURLY WEATHER ROUNDUP FOR THE NEWS MEDIA

CITY           SKY/WX    TMP DP  RH WIND       PRES   REMARKS
ORLANDO        RAIN      74  74 100 S7        29.99  FOG
NEW YORK       PTSUNNY   89  58  34 SW18      29.80F
NEWARK         MOSUNNY   90  53  28 W20G26    29.79F
CHICAGO        MOSUNNY   83  55  38 W14       29.97F
HARTFORD       SUNNY     87  63  44 SW17G26   29.74F
BOSTON         PTSUNNY   88  58  36 W18G25    29.71F
DALLAS         MOSUNNY   92  62  36 SW7       30.06F HX  92
PHILADELPHIA   PTSUNNY   88  55  32 W13G23    29.84F
LOS ANGELES    MOSUNNY   73  63  70 W8        29.98S
WASHINGTON DC  PTSUNNY   85  65  51 NW10      29.89F


USA.gov is the U.S. government's official web portal to all federal, state and local government web resources and services.